Regional Weather Roundup
Issued by NWS

Home | Current Version | Previous Version | Text Only | Print | Product List | Glossary Off
Versions: 1 2 3 4 5 6 7 8 9 10 11 12 13 14 15 16 17 18 19 20 21 22 23 24 25 26 27 28 29 30 31 32 33 34 35 36 37 38 39 40 41 42 43 44 45 46 47 48 49 50

000
ASUS43 KIND 290859
RWRIN

WEATHER ROUNDUP FOR INDIANA
NATIONAL WEATHER SERVICE INDIANAPOLIS IN
500 AM EDT SAT AUG 29 2015

NOTE: "FAIR" INDICATES FEW OR NO CLOUDS BELOW 12,000 FEET WITH NO
SIGNIFICANT WEATHER AND/OR OBSTRUCTIONS TO VISIBILITY.

* - STATION DOES NOT REPORT WEATHER SUCH AS PRECIPITATION OR FOG.

+ - STATION NOT QUALITY CONTROLLED BY THE NATIONAL WEATHER SERVICE.
    USE DATA WITH CAUTION...ESPECIALLY DEWPOINT AND RELATIVE
    HUMIDITY OBSERVATIONS.

INZ001>003-010>013-019-020-291000-
NORTHWEST INDIANA

CITY           SKY/WX    TMP DP  RH WIND       PRES   REMARKS
KNOX *+        MOCLDY    59  59 100 SE5       30.07F
MONTICELLO +   CLOUDY    65  60  85 CALM      30.06F
RENSSELAER +   CLOUDY    63  61  94 E3        30.06F

$$

LMZ046-743>745-291000-
SOUTHERN LAKE MICHIGAN

STATION/POSITION TIME  TEMP    WIND        PRES    WAVE
                       AIR SEA DIR/SP/G            HT
                 (UTC) (F)     (DEG/KT/KT) (MB)    (FT)
BURNS HARBOR     0800   69     140/  9/ 13 1018.3F
MICHIGAN CITY    0800   66     120/  7/  9   N/A
5NW MICH CITY    0800   68 71  160/ 10/ 12   N/A     1

$$

INZ004-005-014>016-021>024-291000-
NORTH CENTRAL INDIANA

CITY           SKY/WX    TMP DP  RH WIND       PRES   REMARKS
GOSHEN         MOCLDY    63  58  83 SE6       30.09F
SOUTH BEND     MOCLDY    65  58  78 SE8       30.08F

$$

INZ006>009-017-018-025>027-291000-
NORTHEAST INDIANA

CITY           SKY/WX    TMP DP  RH WIND       PRES   REMARKS
ANGOLA *+      CLEAR     63  54  72 SE3       30.11F
FORT WAYNE     CLOUDY    63  58  83 E3        30.11S

$$

INZ028-029-035-036-043>045-051>053-291000-
WEST CENTRAL INDIANA

CITY           SKY/WX    TMP DP  RH WIND       PRES   REMARKS
CRAWFORDSVL +  CLOUDY    60  58  92 CALM      30.08S
GREENCASTLE +  MOCLDY    61  55  82 CALM      30.09S
LAFAYETTE      CLOUDY    64  58  80 CALM      30.06F
TERRE HAUTE    CLOUDY    64  61  90 CALM      30.06F

$$

INZ030>032-037>040-046>048-054>057-064-065-291000-
CENTRAL INDIANA

CITY           SKY/WX    TMP DP  RH WIND       PRES   REMARKS
FRANKFORT +    CLOUDY   N/A N/A N/A CALM      30.10S
GREENWOOD *+   CLOUDY    66  55  68 SE3       30.09F
INDIANAPOLIS   CLOUDY    67  59  75 SE3       30.07S
-EAGLE CREEK   CLOUDY    66  59  78 SE3       30.08F
KOKOMO *+      CLOUDY    63  55  77 S5        30.09S
MT COMFORT *+  CLOUDY    63  63 100 CALM      30.10S
SHELBYVILLE    CLOUDY    64  59  83 E3        30.09S

$$

INZ033-034-041-042-049-050-058-059-291000-
EAST CENTRAL INDIANA

CITY           SKY/WX    TMP DP  RH WIND       PRES   REMARKS
MUNCIE         MOCLDY    64  58  80 S5        30.10F

$$

INZ060-061-067>069-081>083-085>088-291000-
SOUTHWEST INDIANA

CITY           SKY/WX    TMP DP  RH WIND       PRES   REMARKS
EVANSVILLE     CLOUDY    69  64  84 CALM      30.06R
HUNTINGBURG *+ CLOUDY    70  63  78 S6        30.07S

$$

INZ062-063-066-070>080-084-089>092-291000-
SOUTH CENTRAL AND SOUTHEAST INDIANA

CITY           SKY/WX    TMP DP  RH WIND       PRES   REMARKS
BLOOMINGTON    CLOUDY    63  60  90 CALM      30.08S
MADISON *+     MOCLDY    66  61  82 CALM      30.12S
SEYMOUR +      MOCLDY    64  63  94 CALM      30.09R

$$




USA.gov is the U.S. government's official web portal to all federal, state and local government web resources and services.